Wind_Speed
6 5 5 6 6 6 7 6 6 6 7 7 7 8 8 9 9 9 9 8 9 9 9 9 9 9 9 10 9 9 10 11 11 11 11 11 10 11 10 10 10 9 9
7 7 6 7 7 7 8 7 7 7 7 8 8 8 9 9 9 10 10 10 10 9 9 10 10 10 11 11 11 11 11 12 12 12 12 12 12 12 12 12 12 11 11
8 8 8 8 8 8 8 8 8 8 8 8 9 9 10 10 10 10 10 11 11 11 11 11 12 11 12 13 13 13 13 13 14 14 14 13 13 13 13 14 13 13 13
9 9 9 10 10 9 9 9 9 10 9 9 9 10 10 11 11 11 11 12 12 11 12 12 12 13 13 13 14 14 15 15 15 16 16 15 14 14 15 16 15 14 14
11 11 10 10 10 10 10 10 10 10 10 11 11 11 12 11 12 13 13 13 13 13 13 13 13 13 14 14 15 15 16 17 17 17 17 17 16 17 16 17 17 17 16
12 12 11 11 11 11 11 10 10 11 11 12 12 13 12 12 12 14 14 14 13 13 12 13 13 14 14 14 15 15 15 15 16 16 16 17 17 17 16 17 17 18 19
12 12 12 12 11 11 12 12 12 12 13 12 12 12 12 12 12 12 13 14 14 14 14 14 14 14 14 14 15 14 15 15 15 15 15 16 16 16 17 18 18 19 19
14 14 13 12 12 12 13 13 13 13 13 13 13 13 13 13 14 14 14 14 14 14 14 15 16 16 16 16 16 16 16 16 16 16 17 17 17 17 17 18 18 18 19
15 15 14 14 13 13 13 13 13 13 14 15 15 14 15 15 15 16 16 16 16 16 16 16 17 18 17 17 18 18 17 17 17 17 17 17 17 17 18 19 20 20 20
18 17 16 15 14 14 14 14 14 14 15 16 17 17 16 16 16 16 17 17 18 18 18 18 18 18 18 18 19 19 18 18 18 17 17 17 17 18 19 19 19 20 21
18 18 17 17 16 15 15 15 15 16 16 16 17 17 17 17 17 17 17 17 17 18 19 19 20 20 20 20 19 19 19 18 17 18 18 17 17 17 18 19 19 19 20
19 19 18 18 17 16 16 16 16 17 18 18 18 18 18 18 18 18 18 18 18 19 20 20 20 20 21 21 20 19 19 19 19 19 18 18 18 18 18 19 19 20 20
20 19 19 19 18 17 17 17 18 18 19 19 19 19 19 19 19 19 19 19 19 20 20 20 20 20 20 20 20 20 19 20 20 19 19 19 19 19 19 20 20 20 20
20 20 19 18 18 18 18 18 19 19 20 20 19 20 20 19 19 19 19 19 19 19 20 21 20 20 20 20 20 20 20 20 20 20 20 21 21 21 21 21 21 21 21
21 21 20 20 20 19 19 20 20 21 21 20 20 20 20 20 20 19 20 20 20 20 21 21 22 21 21 21 20 21 21 22 21 21 22 23 23 23 22 23 22 22 22
22 22 21 21 20 20 21 20 21 22 22 21 21 21 21 21 20 20 20 21 20 20 21 21 22 22 22 22 21 22 22 23 23 23 24 24 24 24 24 24 24 24 24
23 23 22 22 21 21 21 21 22 23 23 22 21 21 21 22 22 21 22 21 21 21 21 21 22 23 23 23 23 23 24 24 25 25 25 25 26 25 25 26 26 27 26
24 23 24 22 21 22 22 23 23 23 23 23 23 22 22 22 22 22 22 22 21 21 22 21 22 23 24 24 24 25 24 25 25 25 25 26 26 26 26 26 27 27 27
24 24 24 22 23 23 24 24 24 24 24 24 24 23 22 22 23 23 23 23 22 22 22 22 22 24 24 25 25 26 26 25 25 25 25 26 26 26 26 27 26 27 27
24 25 24 23 24 24 24 24 24 24 24 25 24 23 23 23 23 23 23 23 23 23 24 24 24 24 24 25 25 26 27 27 26 26 26 26 26 27 27 28 28 28 28
25 25 25 25 25 26 26 25 25 25 26 25 25 24 24 24 24 24 24 24 25 24 25 25 25 25 24 25 26 26 26 27 27 28 27 26 27 27 27 28 29 29 29
27 26 25 26 26 26 26 26 26 26 26 25 25 25 24 24 25 26 25 26 26 25 25 25 25 25 24 25 25 26 26 27 27 28 28 26 26 26 26 27 29 29 30
27 25 25 26 26 26 27 26 26 26 25 25 26 26 25 25 25 26 26 26 27 27 26 26 25 25 25 25 26 26 27 27 26 26 27 26 25 25 26 26 26 28 29
27 27 27 27 27 27 27 26 26 26 27 27 27 26 26 25 25 25 25 26 27 26 26 26 26 25 25 26 26 27 27 27 26 26 27 27 26 26 25 25 26 26 26
28 28 28 28 28 28 28 27 27 27 27 27 27 27 27 26 26 26 27 27 26 26 26 26 26 26 26 26 26 26 26 27 27 26 26 27 27 26 26 25 25 25 26
28 29 29 29 29 29 29 29 29 28 27 26 26 27 26 26 26 26 27 26 26 26 26 27 28 28 27 26 26 27 27 27 27 26 27 28 27 27 26 26 26 26 26
Wind_Direction
356 351 345 340 334 328 327 321 305 299 292 281 277 275 273 270 268 262 265 264 265 265 265 264 259 258 258 260 265 263 261 261 265 265 262 261 260 259 260 258 256 256 255
356 350 344 334 330 328 327 322 311 303 299 295 287 279 274 277 272 270 269 268 267 267 265 263 262 260 260 260 262 263 265 264 264 266 266 266 260 257 257 256 254 254 254
347 345 342 337 331 323 321 319 311 301 295 295 290 284 281 279 278 277 274 272 271 268 267 267 266 265 264 262 262 264 265 265 264 265 266 270 265 259 259 257 257 256 254
337 332 332 333 328 322 319 318 317 310 300 297 294 290 287 284 281 279 279 279 277 273 271 267 268 269 269 266 266 265 266 266 264 263 264 267 268 263 259 258 257 257 255
337 332 330 327 327 323 320 317 316 311 305 300 296 293 290 289 286 281 280 278 279 277 273 270 270 272 273 271 270 270 269 270 270 265 265 264 265 266 263 259 259 257 256
332 330 329 325 324 322 321 318 314 312 309 305 302 298 294 291 289 283 281 279 279 277 278 277 273 271 274 275 273 274 275 276 276 275 269 266 265 266 265 264 262 260 258
329 327 324 323 322 319 317 315 313 308 304 303 303 300 297 298 294 291 284 281 282 281 276 275 275 273 274 275 275 275 275 279 282 281 275 273 271 268 267 266 264 262 260
324 324 324 321 319 317 316 315 312 310 308 305 302 300 299 296 292 291 290 286 284 283 280 277 275 273 272 273 273 275 275 278 280 281 278 274 272 272 268 266 266 264 263
320 319 318 317 315 312 312 311 309 309 308 305 302 300 298 295 291 291 290 288 285 285 283 279 277 273 273 272 272 274 275 276 276 278 280 278 273 272 272 268 266 263 260
318 317 319 316 311 308 309 310 311 310 309 305 300 298 296 293 292 290 290 288 284 282 282 283 281 275 274 274 273 272 273 275 275 276 278 278 273 270 271 270 269 266 261
319 316 314 315 310 308 308 308 310 310 308 306 303 299 295 294 291 289 291 288 284 282 281 282 281 278 276 276 274 273 274 273 275 276 275 277 274 273 273 273 272 271 267
319 314 310 311 310 307 306 307 307 307 307 306 305 304 299 298 296 292 289 286 286 284 283 281 281 278 277 278 277 277 275 277 278 277 276 277 276 275 275 275 273 273 273
318 315 311 310 313 312 309 307 307 307 307 305 304 304 301 299 298 296 292 289 287 286 285 283 282 281 279 278 278 277 278 278 279 276 275 276 277 276 274 273 274 274 274
316 317 312 311 314 314 310 307 306 306 306 305 304 302 300 299 298 297 296 293 289 285 284 283 283 281 281 281 280 277 278 279 279 276 275 275 276 275 274 271 270 271 272
313 311 309 311 313 313 312 309 308 306 305 304 301 300 299 298 299 297 295 294 290 286 284 283 283 281 281 282 280 278 279 279 280 278 277 276 276 274 273 271 269 269 269
309 307 306 309 311 311 310 309 309 308 304 301 298 297 296 294 294 294 294 294 291 289 286 285 285 285 285 283 281 281 280 280 280 279 279 277 276 274 272 271 270 270 270
307 305 306 307 308 309 309 309 309 308 305 303 301 298 295 293 293 293 295 294 294 292 290 286 285 285 285 284 284 283 282 281 280 278 277 276 276 275 273 273 272 271 269
305 306 308 308 307 307 308 309 308 307 305 303 303 300 295 293 293 292 294 294 294 294 293 289 287 286 285 284 284 285 284 282 281 279 277 277 276 275 274 273 273 272 271
302 305 307 307 307 305 305 306 307 307 306 303 302 299 295 294 294 292 292 293 294 294 293 291 290 288 287 286 285 285 285 283 282 280 278 278 277 276 275 274 275 273 272
298 300 302 304 304 305 305 305 305 304 305 305 303 299 294 294 295 294 294 293 293 292 291 292 291 289 288 288 287 286 283 281 281 281 278 277 277 278 276 274 274 273 273
297 298 300 302 303 303 302 303 302 301 301 301 300 299 298 296 294 294 295 295 294 292 292 292 291 289 289 289 287 285 282 281 280 280 278 277 277 277 278 278 276 275 275
294 295 298 301 301 302 301 301 300 300 300 300 299 299 299 298 297 295 296 297 297 295 294 293 291 290 290 289 289 288 284 282 282 280 279 278 279 279 279 279 277 275 274
294 295 298 299 300 300 300 299 298 298 298 299 299 299 298 298 298 296 296 296 298 296 295 294 293 293 291 290 288 287 286 284 283 282 280 280 280 281 282 283 280 276 274
299 297 297 298 298 298 298 296 296 297 297 298 299 299 299 297 297 296 296 296 295 294 295 294 294 294 292 291 290 289 287 284 283 283 283 281 280 281 282 283 282 280 277
297 297 297 297 298 298 297 296 295 297 297 297 299 300 299 298 297 296 296 297 297 296 295 296 296 296 294 292 290 288 286 285 284 283 281 281 281 280 281 281 281 281 279
294 295 296 297 297 297 296 296 294 295 296 296 297 298 298 297 297 298 297 296 295 295 294 295 296 296 296 293 291 288 285 283 282 281 281 280 280 281 280 279 278 278 279
Height
5895 5894 5893 5893 5892 5892 5891 5890 5890 5890 5890 5890 5890 5890 5890 5891 5892 5892 5892 5892 5893 5894 5894 5894 5895 5895 5895 5896 5897 5897 5897 5898 5898 5898 5899 5899 5899 5900 5900 5901 5901 5901 5902
5895 5894 5894 5893 5892 5892 5891 5890 5890 5890 5889 5889 5889 5889 5889 5890 5890 5890 5891 5891 5891 5891 5892 5892 5893 5893 5893 5894 5894 5895 5895 5896 5896 5896 5896 5896 5896 5897 5898 5898 5899 5899 5900
5895 5894 5893 5893 5892 5891 5890 5890 5889 5889 5888 5888 5888 5888 5888 5888 5888 5888 5888 5889 5889 5889 5889 5890 5890 5890 5891 5891 5891 5892 5893 5893 5893 5893 5893 5893 5894 5894 5895 5896 5896 5896 5897
5895 5894 5893 5892 5891 5890 5889 5889 5888 5887 5887 5887 5886 5886 5886 5886 5885 5886 5886 5886 5886 5887 5887 5887 5887 5888 5888 5888 5889 5889 5889 5890 5890 5890 5890 5891 5891 5891 5892 5892 5893 5893 5894
5895 5894 5893 5892 5891 5890 5889 5888 5887 5886 5886 5885 5885 5885 5884 5884 5883 5883 5884 5884 5884 5884 5884 5884 5884 5885 5885 5885 5886 5886 5886 5886 5886 5887 5887 5887 5887 5888 5888 5889 5889 5890 5890
5895 5893 5892 5891 5890 5889 5887 5886 5885 5884 5884 5883 5883 5882 5882 5882 5881 5881 5881 5881 5880 5881 5881 5881 5881 5881 5882 5882 5882 5883 5883 5882 5882 5882 5883 5883 5884 5884 5884 5885 5886 5886 5887
5894 5892 5891 5890 5888 5887 5886 5884 5884 5882 5881 5881 5880 5880 5879 5879 5879 5878 5878 5878 5877 5877 5878 5878 5878 5878 5878 5879 5879 5879 5879 5879 5879 5879 5879 5879 5879 5880 5880 5881 5881 5882 5882
5892 5891 5889 5888 5886 5885 5884 5883 5881 5880 5879 5879 5878 5877 5877 5877 5876 5875 5875 5874 5874 5874 5874 5874 5874 5874 5874 5875 5875 5875 5875 5875 5875 5875 5875 5875 5875 5875 5875 5876 5876 5877 5877
5891 5889 5888 5886 5885 5883 5882 5881 5879 5878 5877 5876 5875 5874 5873 5873 5872 5872 5871 5871 5870 5870 5870 5869 5869 5869 5869 5870 5870 5870 5870 5870 5871 5871 5870 5870 5870 5871 5871 5871 5872 5872 5872
5888 5886 5885 5884 5882 5881 5880 5878 5877 5876 5875 5873 5872 5871 5870 5868 5868 5868 5867 5866 5866 5865 5865 5865 5865 5864 5864 5865 5865 5866 5866 5866 5866 5866 5866 5866 5866 5866 5866 5866 5866 5866 5867
5886 5884 5882 5881 5879 5878 5877 5875 5874 5873 5871 5870 5868 5867 5866 5864 5863 5863 5862 5862 5861 5861 5861 5861 5860 5859 5859 5860 5860 5860 5860 5860 5860 5860 5861 5861 5861 5861 5861 5861 5861 5861 5861
5883 5881 5879 5878 5876 5875 5873 5872 5871 5869 5868 5866 5865 5863 5862 5860 5859 5858 5858 5857 5856 5856 5855 5855 5855 5855 5854 5854 5854 5855 5855 5855 5855 5855 5855 5855 5855 5855 5855 5856 5855 5855 5856
5880 5878 5876 5874 5873 5871 5870 5869 5867 5866 5864 5862 5861 5859 5857 5856 5855 5854 5853 5852 5852 5851 5850 5850 5850 5849 5849 5849 5848 5848 5849 5849 5849 5850 5850 5850 5850 5850 5850 5850 5850 5850 5850
5877 5874 5872 5871 5869 5868 5866 5865 5863 5862 5860 5858 5856 5855 5853 5852 5850 5849 5848 5847 5847 5846 5845 5844 5844 5844 5843 5843 5843 5843 5843 5843 5843 5844 5844 5844 5844 5844 5844 5844 5844 5844 5844
5873 5871 5869 5867 5866 5864 5862 5861 5859 5857 5855 5853 5852 5850 5848 5847 5845 5844 5843 5842 5841 5841 5840 5839 5838 5838 5838 5837 5836 5836 5837 5837 5837 5837 5837 5837 5837 5837 5837 5837 5838 5838 5838
5869 5867 5865 5863 5862 5860 5858 5856 5854 5852 5850 5848 5847 5845 5844 5842 5841 5839 5838 5837 5835 5835 5834 5833 5832 5832 5831 5831 5830 5830 5830 5830 5830 5830 5830 5830 5830 5830 5830 5830 5831 5831 5831
5865 5863 5861 5859 5857 5856 5854 5851 5849 5847 5845 5843 5841 5840 5838 5837 5836 5835 5833 5832 5830 5829 5828 5828 5826 5825 5825 5824 5824 5824 5823 5823 5823 5823 5823 5823 5823 5823 5823 5823 5823 5824 5824
5860 5858 5856 5855 5853 5851 5849 5846 5844 5842 5840 5838 5836 5835 5833 5832 5831 5829 5828 5826 5825 5823 5822 5821 5820 5819 5819 5818 5817 5816 5816 5816 5816 5815 5816 5816 5815 5815 5816 5815 5816 5816 5816
5855 5853 5852 5850 5848 5846 5844 5841 5839 5837 5835 5833 5831 5829 5828 5827 5825 5824 5822 5821 5819 5818 5816 5815 5814 5813 5812 5811 5810 5809 5809 5808 5808 5808 5808 5808 5808 5808 5808 5808 5808 5808 5808
5849 5848 5846 5844 5843 5841 5838 5836 5834 5832 5830 5827 5825 5824 5822 5821 5819 5818 5816 5815 5813 5812 5810 5809 5807 5806 5805 5803 5802 5802 5801 5800 5800 5800 5800 5799 5799 5799 5799 5799 5799 5799 5800
5843 5842 5840 5838 5837 5835 5833 5830 5828 5826 5824 5822 5820 5818 5817 5815 5813 5812 5810 5808 5807 5805 5804 5802 5800 5799 5797 5796 5795 5794 5794 5793 5792 5792 5792 5792 5791 5791 5791 5790 5790 5790 5790
5837 5835 5834 5832 5831 5829 5827 5824 5822 5820 5818 5816 5814 5812 5811 5809 5807 5805 5804 5802 5800 5798 5797 5795 5793 5792 5790 5789 5787 5787 5786 5786 5785 5784 5783 5783 5783 5782 5782 5781 5781 5781 5781
5831 5829 5828 5826 5824 5822 5820 5818 5816 5814 5812 5810 5808 5806 5804 5803 5801 5799 5797 5795 5793 5791 5790 5788 5786 5784 5783 5782 5780 5779 5778 5777 5777 5776 5775 5775 5774 5774 5773 5772 5771 5771 5771
5825 5823 5821 5820 5818 5815 5813 5811 5809 5807 5805 5804 5802 5800 5798 5796 5794 5792 5791 5789 5786 5784 5782 5781 5779 5777 5776 5774 5772 5771 5770 5769 5768 5767 5766 5766 5766 5765 5764 5763 5762 5762 5761
5818 5817 5815 5813 5811 5809 5806 5804 5802 5800 5799 5797 5795 5793 5791 5789 5787 5785 5783 5781 5779 5777 5775 5773 5772 5770 5767 5766 5764 5763 5762 5761 5760 5759 5758 5758 5757 5757 5756 5755 5754 5753 5752
5812 5810 5808 5806 5804 5802 5799 5797 5795 5793 5791 5790 5788 5786 5784 5782 5780 5778 5776 5774 5772 5771 5768 5766 5764 5762 5760 5758 5756 5755 5753 5752 5751 5751 5750 5749 5748 5748 5748 5747 5746 5745 5744